Location: Azul
(36.7830°S, 59.8500°W)
Time: 09:22:35
(UTC-03:00)

NOAA 19 - Pass Details

Date: 23 October 2021
Orbit: 840 x 861 km, 99.2° (Epoch: 07 December)

Event Time Altitude Azimuth Distance (km) Brightness Sun altitude
Rises 21:49:25 0° 183° (S) 3,472 9.0 -26.5°
Reaches altitude 10° 21:52:27 10° 200° (SSW) 2,528 8.4 -26.9°
Maximum altitude 21:56:18 19° 243° (WSW) 1,938 7.8 -27.5°
Drops below altitude 10° 22:00:08 10° 287° (WNW) 2,508 8.0 -28.1°
Sets 22:03:08 0° 304° (WNW) 3,435 8.5 -28.5°
